SLSA4: ILLINOIS RIVER AT HIGHWAY 16 BRIDGE NR SILOAM SPRINGS 4SE

Data processed at Sat Dec 09 2017 23:13


All information presented herein is the property of the government of the United States of America and may be revised or deleted at any time without prior notice.
Dissemination of this information without the expressed written consent of the Public Affairs Office, Tulsa District U.S. Army Corps of Engineers is strictly prohibited.
These data are gathered electronically and, as presented, have not undergone any form of quality control. These data are not guaranteed to be valid or correct.
Go to home page.
Go to station list.

Upstream stations:

Downstream station:
Previous Day
Next Day
Current Day
    
SHEF ID:       SLSA4     Illinois River at Hwy. 16 near S
STATION TYPE:  

               PRECIP     STAGE  RIV-FLOW  BAT-LOAD
                   in        ft       cfs      volt
              Ccp-Rev   Ccp-Rev   Ccp-Rev   Ccp-Rev
(US/Central)
12/07 00:00      0.00      6.06       351     12.54
12/07 01:00      0.00      6.06       351     12.54
12/07 02:00      0.00      6.06       351     12.54
12/07 03:00      0.00      6.06       351     12.48
12/07 04:00      0.00      6.07       355     12.48
12/07 05:00      0.00      6.07       355     12.48
12/07 06:00      0.00      6.07       355     12.42
12/07 07:00      0.00      6.08       359     12.42
12/07 08:00      0.00      6.07       355     12.42
12/07 09:00      0.00      6.07       355     12.54
12/07 10:00      0.00      6.04       344     13.36
12/07 11:00      0.00      6.07       355     13.53
12/07 12:00      0.00      6.06       351     13.53
12/07 13:00      0.00      6.03       340     13.53
12/07 14:00      0.00      6.06       351     13.53
12/07 15:00      0.00      6.06       351     13.53
12/07 16:00      0.00      6.06       351     13.48
12/07 17:00      0.00      6.06       351     13.42
12/07 18:00      0.00      6.06       351     12.77
12/07 19:00      0.00      6.05       347     12.71
12/07 20:00      0.00      6.05       347     12.65
12/07 21:00      0.00      6.05       347     12.60
12/07 22:00      0.00      6.05       347     12.54
12/07 23:00      0.00      6.05       347     12.54